Regional Weather Roundup
Issued by NWS

Home | Current Version | Previous Version | Text Only | Print | Product List | Glossary Off
Versions: 1 2 3 4 5 6 7 8 9 10 11 12 13 14 15 16 17 18 19 20 21 22 23 24 25 26 27 28 29 30 31 32 33 34 35 36 37 38 39 40 41 42 43 44 45 46 47 48 49 50

000
ASUS43 KLOT 200203
RWRIL

ILLINOIS REGIONAL WEATHER ROUNDUP
NATIONAL WEATHER SERVICE CHICAGO/ROMEOVILLE IL
900 PM CDT TUE SEP 19 2017

NOTE: "FAIR" INDICATES FEW OR NO CLOUDS BELOW 12,000 FEET WITH NO
SIGNIFICANT WEATHER AND/OR OBSTRUCTIONS TO VISIBILITY.

* THESE STATIONS ARE NOT UNDER NWS QUALITY CONTROL. THEY ALSO MAY NOT
  REPORT WEATHER SUCH AS PRECIPITATION OR FOG.

ILZ001-002-007-009-015-016-024-200300-
NORTHWEST ILLINOIS

CITY           SKY/WX    TMP DP  RH WIND       PRES   REMARKS
MOLINE         CLEAR     72  64  76 SE8       29.85R
STERLING*        N/A     68  65  90 VRB5      29.89S
SAVANNA*       CLEAR     66  64  92 SE7       29.87S
$$

ILZ003-004-008-010-011-017-018-200300-
NORTH CENTRAL ILLINOIS

CITY           SKY/WX    TMP DP  RH WIND       PRES   REMARKS
ROCKFORD       CLEAR     68  61  78 E8        29.91R
FREEPORT*      PTCLDY    67  64  87 SE7       29.91S
ROCHELLE*      CLEAR     66  62  87 E7        29.92R
DE KALB*       CLEAR     65  63  91 E7        29.93R
PERU*          CLEAR     67  62  83 E3        29.90S
$$

ILZ005-006-012>014-019>023-200300-
NORTHEAST ILLINOIS

CITY           SKY/WX    TMP DP  RH WIND       PRES   REMARKS
CHICAGO-OHARE  PTCLDY    68  62  81 E5        29.92S
CHICAGO-MIDWAY PTCLDY    70  63  78 E6        29.92S
AURORA         CLEAR     67  64  90 E7        29.92R
LANSING*       CLEAR     66  64  93 E3        29.93S
JOLIET*        CLEAR     69  66  90 E7        29.92S
WAUKEGAN       CLEAR     64  64 100 CALM      29.93R FOG
DUPAGE AIRPORT CLEAR     66  64  93 E3        29.92R
KANKAKEE*      CLEAR     66  65  96 CALM      29.93R
WHEELING       CLEAR     67  66  97 CALM      29.94S
MORRIS*        CLEAR     67  64  89 E7        29.91R
ROMEOVILLE*    CLEAR     66  64  91 E7        29.92S
NORTHERLY ISL    N/A     67  63  87 NE5         N/A
$$

LMZ740>746-200300-
SOUTHERN LAKE MICHIGAN

STATION/POSITION SKY/WX   TEMP    WIND        PRES    VSBY  WAVE
                          AIR SEA DIR/SP/G                  HT/PER
                          (F)     (DEG/KT/KT) (MB)    (MI)  (FT/S)
SOUTHERN BUOY              68 69   20/  4/  6 1013.5          1
WILMETTE HARBOR            69 69   60/  4/  6   N/A           1/ 3
HARRISON CRIB              69      50/  4/  5   N/A
CALUMET HARBOR             68      30/  4/  5 1012.8S
BURNS HARBOR               68      70/  6/  7 1013.9S
MICHIGAN CITY              67      40/  3/  3   N/A
MICHIGAN CITY 6N           68 69   60/  4/  4   N/A           1/ 4
ST. JOSEPH                 68 69  130/  4/  4 1013.2R         1/ 2
$$

ILZ025>027-034>036-040-047-049-050-058-095>099-200300-
WEST-CENTRAL ILLINOIS

CITY           SKY/WX    TMP DP  RH WIND       PRES   REMARKS
QUINCY         CLEAR     74  66  76 SE7       29.84R
GALESBURG*     CLEAR     69  64  85 SE3       29.88R
MACOMB*        CLEAR     69  66  89 E6        29.88R
PITTSFIELD*    CLEAR     73  67  82 E3        29.87R
$$

ILZ028>032-037-038-041>044-048-051>054-059>061-200300-
CENTRAL ILLINOIS

CITY           SKY/WX    TMP DP  RH WIND       PRES   REMARKS
PONTIAC        CLEAR     66  65  98 CALM      29.91S
BLOOMINGTON    CLEAR     67  63  87 E8        29.92R
DECATUR        CLEAR     68  66  93 E5        29.90R
PEORIA         CLEAR     72  66  81 E5        29.88S
LACON*         CLEAR     66  64  94 CALM      29.88S
LINCOLN*       CLEAR     70  66  88 E3        29.89R
SPRINGFIELD    CLEAR     75  66  73 SE6       29.88R
TAYLORVILLE    NOT AVBL
$$

ILZ033-039-045-046-055>057-062-063-200300-
EAST-CENTRAL ILLINOIS

CITY           SKY/WX    TMP DP  RH WIND       PRES   REMARKS
CHAMPAIGN      CLEAR     69  63  81 E3        29.92R
RANTOUL*       CLEAR     72  67  84 CALM      29.91S
MATTOON        CLEAR     71  67  87 E5        29.90R
PARIS*         CLEAR     69  64  85 CALM      29.92S
$$

ILZ079-100>102-200300-
SOUTHWEST ILLINOIS

CITY           SKY/WX    TMP DP  RH WIND       PRES   REMARKS
ALTON          CLEAR     73  68  83 E7        29.88R
CAHOKIA*       CLEAR     80  67  64 S6        29.86R HX  82
SPARTA*        CLEAR     76  68  76 SE5       29.90R
$$

ILZ064>066-069>071-074>076-080>082-084>086-088>090-092>094-200300-
SOUTH-CENTRAL ILLINOIS

CITY           SKY/WX    TMP DP  RH WIND       PRES   REMARKS
CARBONDALE     CLEAR     73  70  90 CALM      29.89R
CAIRO*         CLEAR     73  72  95 CALM      29.89S
EFFINGHAM*     CLEAR     69  68  94 CALM      29.92R
MARION         CLEAR     75  73  94 CALM      29.91S
MT. VERNON       N/A     69  68  96 CALM      29.90R
CENTRALIA*     CLEAR     74  69  81 SE5       29.89R
SALEM*         CLEAR     78  67  67 SE3       29.90R HX  80
METROPOLIS*    CLEAR     73  70  89 CALM      29.92R
$$

ILZ067-068-072-073-078-083-087-091-200300-
SOUTHEAST ILLINOIS

CITY           SKY/WX    TMP DP  RH WIND       PRES   REMARKS
LAWRENCEVILLE  CLEAR     72  70  93 S7        29.91S
FLORA*         CLEAR     74  68  80 CALM      29.91R
FAIRFIELD*     CLEAR     74  68  82 CALM      29.89S
HARRISBURG*    CLEAR     73  69  89 CALM      29.91R
ROBINSON*      CLEAR     68  66  93 S3        29.91S
CARMI*         CLEAR     70  69  96 S5        29.90S
$$

ABBREVIATIONS USED IN REMARKS
   TC - TEMPERATURE IN CELSIUS
  WCI - WIND CHILL INDEX
   HX - HEAT INDEX
  VSB - VISIBILITY
$$





USA.gov is the U.S. government's official web portal to all federal, state and local government web resources and services.